NIMBUS 2 DEB, 28615

Orbit data source: Space-Track

NIMBUS 2 DEB, 28615 is space debris in SSO originally from a launch on Sun, 15 May 1966 UTC launched from the Air Force Western Test Range (AFWTR). Debris objects in space refer to the collection of defunct objects orbiting the Earth. Examples of debris include non-operational satellites, rocket bodies, and fragments generated from explosions, collisions, or faulty payload assembly.

Loading next visibility...
Identifier
28615, 1966-040AE
Orbit
SSO
Last TLE update
3 days ago
Origin
Manufacturer
Unknown
Mission
Spacecraft
Bus & Motor
Unknown
Mass
Unknown
Launch date (UTC)
1966-05-15 (59 years ago)
Launch vehicle
Unknown
Launch site
Air Force Western Test Range (AFWTR)
Object type
Payload
Rocket body
Debris
Shape & HBR
Unknown
Radar Cross Section
Small (<0.1 m²)

Expand to show TLE details & history

TLE from 3 days ago
0 NIMBUS 2 DEB
1 28615U 66040AE  25126.54039456  .00007053  00000-0  59600-2 0  9997
2 28615 100.2723 233.1391 0043736 135.0971 244.3153 13.87565191549297
Epoch: 2025-05-06T12:58Z
Definitive object data (Epoch: 2025-05-06T12:58:10.089Z)
Latitude
18.6437°
Longitude
170.47168°
Altitude
953.463 km
Speed
7.37 km/s
True Right ascension
15h 18m 36s
True Declination
18° 32' 33"
Sunlit
Object was in full shadow at TLE epoch
Visualization TLE readout
Latitude
-76.93812°
Longitude
-54.05373°
Altitude
986.608 km
Speed
7.347 km/s
Apparent Right ascension
01h 49m 01s
Apparent Declination
-60° 17' 22"
Sunlit
Object is in daylight
Visualization observer readout
Local Sidereal Time
14:18:30
Azimuth
169.722° S
Elevation
-69.115°
Doppler factor
1
Orbital elements
Apogee altitude
966.44 km
Perigee altitude
902.476 km
Semi-major axis
7,312.595 km
Eccentricity
0.0043736
Inclination
100.2723°
RAAN
233.1391°
Arg. of periapsis
135.0971°
True anomaly
243.86471°
Mean anomaly
244.3153°
Eccentric anomaly
244.0899°
Mean motion
3.47085 °/min
BSTAR
0.00596
Orbital period
103.72 mins
Loading maneuver chart data...
Loading SW <> Apogee altitude chart data...
Loading historical data...
Loading historical data...
Loading historical data...
Loading historical data...
Loading historical data...
Loading historical data...
Loading historical data...

NIMBUS 2 DEB Visibility forecast

Observer location: undefined°, undefined°

Span
Click to sort rows by Start time (UTC) header in descending order
Start Az.
Max El. time (UTC)
Max El. Az.
Max El.
End time (UTC)
End Az.
11 mins2025-05-09 06:44:43.295Z155.406° SSE2025-05-09 06:49:43.295Z113.179° SE43.215°2025-05-09 06:55:43.295Z348.461° N
4 mins2025-05-09 08:31:43.295Z252.789° W2025-05-09 08:32:43.295Z264.154° W14.615°2025-05-09 08:35:43.295Z296.839° NW
9 mins2025-05-09 19:21:43.295Z39.674° NE2025-05-09 19:25:43.295Z100.675° ESE31.281°2025-05-09 19:30:43.295Z165.362° S
8 mins2025-05-09 21:04:43.295Z342.56° N2025-05-09 21:07:43.295Z297.66° NW27.168°2025-05-09 21:12:43.295Z236.293° WSW
4 mins2025-05-10 05:20:43.295Z72.603° E2025-05-10 05:21:43.295Z61.364° ENE14.318°2025-05-10 05:24:43.295Z28.753° NE
|